This demonstration page uses our WeatherBlox Daily Observations layout. Learn more.

Left ArrowRight Arrow

31.84235, -102.49876

Hourly Observations for March 12, 2018

Temp ( °F °C ) Dew Point ( °F °C ) Humidity (%) Winds ( mph kmh ) Pressure ( in mb ) Visibility ( mi km ) Precip ( " mm )
12:53 am 00:53 Cloudy 48 8.9 19 -7.2 32 32 N 7 11 30.27 1025 10 16 0.00 0.00
1:53 am 01:53 Cloudy 48 8.9 14 -10 25 25 ENE 8 13 30.27 1025 10 16 0.00 0.00
2:53 am 02:53 Cloudy 47 8.3 14 -10 26 26 ENE 5 7 30.28 1026 10 16 0.00 0.00
3:53 am 03:53 Cloudy 49 9.4 13 -10.6 23 23 E 9 15 30.27 1025 10 16 0.00 0.00
4:53 am 04:53 Cloudy 47 8.3 17 -8.3 30 30 E 9 15 30.28 1025 10 16 0.00 0.00
5:53 am 05:53 Cloudy 47 8.3 20 -6.7 34 34 E 8 13 30.29 1026 10 16 0.00 0.00
6:53 am 06:53 Cloudy 46 7.8 20 -6.7 35 35 E 9 15 30.30 1026 10 16 0.00 0.00
7:53 am 07:53 Cloudy 46 7.8 21 -6.1 37 37 E 9 15 30.31 1026 10 16 0.00 0.00
8:53 am 08:53 Cloudy 45 7.2 22 -5.6 40 40 E 9 15 30.33 1027 10 16 0.00 0.00
9:53 am 09:53 Cloudy 46 7.8 23 -5 40 40 E 7 11 30.36 1028 10 16 0.00 0.00
10:53 am 10:53 Cloudy 47 8.3 23 -5 39 39 E 7 11 30.36 1028 10 16 0.00 0.00
11:53 am 11:53 Cloudy 50 10 23 -5 35 35 E 9 15 30.35 1028 10 16 0.00 0.00
12:53 pm 12:53 Cloudy 53 11.7 22 -5.6 30 30 E 9 15 30.32 1027 10 16 0.00 0.00
1:53 pm 13:53 Partly Cloudy 55 12.8 19 -7.2 24 24 ENE 10 17 30.28 1026 10 16 0.00 0.00
2:53 pm 14:53 Sunny 57 13.9 19 -7.2 23 23 E 10 17 30.25 1024 10 16 0.00 0.00
3:53 pm 15:53 Sunny 57 13.9 17 -8.3 21 21 SE 8 13 30.21 1023 10 16 0.00 0.00
4:53 pm 16:53 Sunny 58 14.4 16 -8.9 19 19 SSE 10 17 30.17 1022 10 16 0.00 0.00
5:53 pm 17:53 Sunny 59 15 16 -8.9 18 18 SSE 7 11 30.15 1021 10 16 0.00 0.00
6:53 pm 18:53 Sunny 58 14.4 16 -8.9 19 19 SE 8 13 30.14 1021 10 16 0.00 0.00
7:53 pm 19:53 Sunny 56 13.3 17 -8.3 22 22 ESE 6 9 30.16 1021 10 16 0.00 0.00
8:53 pm 20:53 Clear 52 11.1 17 -8.3 25 25 SSE 7 11 30.17 1022 10 16 0.00 0.00
9:53 pm 21:53 Clear 51 10.6 17 -8.3 26 26 SE 6 9 30.18 1022 10 16 0.00 0.00
10:53 pm 22:53 Clear 44 6.7 16 -8.9 32 32 ESE 7 11 30.19 1023 10 16 0.00 0.00
11:53 pm 23:53 Clear 47 8.3 17 -8.3 30 30 ESE 8 13 30.19 1022 10 16 0.00 0.00

Powered by AerisWeather